Location: Crescent
(42.8242°N, 73.7329°W)
Time: 00:54:33
(UTC+00:00)

Transit 4A - Pass Details

Date: 18 February 2026
Orbit: 864 x 977 km, 66.8° (Epoch: 10 March)

Event Time Altitude Azimuth Distance (km) Brightness Sun altitude
Rises 16:19:11 0° 333° (NNW) 3,599 10.5 34.5°
Reaches altitude 10° 16:21:55 10° 342° (NNW) 2,670 9.9 34.7°
Maximum altitude 16:27:40 37° 49° (NE) 1,452 9.0 34.9°
Drops below altitude 10° 16:33:30 10° 116° (ESE) 2,711 10.9 35.1°
Sets 16:36:17 0° 124° (SE) 3,662 11.5 35.2°
